Theta_e
348 355 360 359 360 357 357 359 359 359 360 359 358 358 357 357 357 356 357 357 359 357 356 354 353 353 354 354 353 353 353 353 353 355 354 353 348 349 350 351 353 347 353
351 355 361 360 359 360 361 360 359 359 359 358 357 357 356 356 356 357 357 357 357 354 352 351 350 349 349 348 347 348 348 348 349 349 350 352 353 348 348 349 353 351 352
351 353 357 360 358 358 358 358 358 357 357 357 356 356 356 356 355 355 356 356 355 352 351 350 349 349 349 349 349 350 350 350 350 350 349 344 344 354 349 351 353 353 354
349 350 353 360 359 357 357 356 357 357 357 357 357 356 355 355 354 354 355 354 354 354 353 352 352 352 351 351 351 350 350 351 351 351 344 342 340 349 355 353 354 354 352
349 350 352 359 358 357 357 358 359 358 358 357 355 355 354 353 352 352 351 351 352 352 352 353 354 354 354 354 353 352 352 352 352 348 338 336 335 342 355 357 355 353 355
348 351 358 359 358 357 355 354 356 356 356 356 356 354 352 351 351 351 350 350 350 350 350 351 352 352 353 354 354 354 353 353 352 341 340 339 338 345 358 357 356 355 356
347 351 354 359 359 358 356 357 357 356 354 352 351 350 350 350 351 350 349 350 351 351 352 352 352 353 354 353 353 353 353 352 347 342 340 342 349 355 354 358 355 353 354
348 350 351 359 360 359 358 356 354 354 353 353 352 351 351 352 354 354 353 352 353 353 352 352 352 353 354 354 355 354 354 353 349 345 343 346 352 357 359 356 355 356 355
349 349 349 353 354 356 356 354 354 355 354 352 351 352 352 353 354 353 355 355 354 354 351 350 351 351 353 353 353 355 355 355 346 345 345 346 354 355 353 352 352 353 353
345 346 346 348 348 346 348 355 355 354 352 351 348 346 345 344 348 349 352 353 354 352 352 352 353 353 353 353 354 353 353 353 346 342 341 342 349 349 349 348 349 352 353
342 342 343 342 341 342 347 351 354 352 345 341 339 340 336 334 336 335 344 348 349 348 349 346 349 347 346 352 351 353 355 346 342 340 339 345 347 347 347 345 348 349 349
336 337 338 338 338 343 350 344 343 337 333 332 330 328 329 328 329 330 333 337 340 337 337 336 338 339 334 330 332 338 338 343 341 340 341 347 349 348 345 344 346 348 345
335 336 336 335 335 335 334 332 332 334 331 329 326 325 324 323 322 322 323 323 328 328 323 324 325 325 325 324 325 324 326 329 340 342 344 348 349 349 346 346 346 345 344
332 333 334 334 331 329 329 327 326 327 329 324 322 321 320 318 317 318 319 319 322 319 318 319 320 322 321 321 320 319 319 321 329 337 339 349 348 348 347 345 344 342 343
329 330 330 330 328 327 325 323 323 323 324 322 319 318 318 316 314 314 316 317 318 317 317 317 319 318 317 318 318 318 318 319 323 330 331 344 349 349 347 345 342 340 339
329 328 328 328 327 325 322 320 319 320 319 318 316 316 317 315 313 312 313 315 316 315 316 316 317 315 315 316 317 318 317 317 317 318 321 328 342 347 346 344 343 340 338
327 327 327 327 323 322 321 320 316 316 315 315 314 315 316 314 314 312 312 314 315 315 315 316 315 314 315 316 315 317 316 316 317 316 324 330 331 345 344 343 341 338 338
318 317 318 320 316 316 314 316 319 317 314 313 313 314 315 315 314 312 311 311 313 314 314 313 312 311 311 312 313 313 312 313 315 322 328 330 329 331 337 337 336 336 338
316 315 315 316 315 314 312 313 313 313 313 312 312 312 313 314 313 309 309 309 312 312 312 313 310 309 309 311 312 310 310 311 321 324 322 325 328 328 329 337 337 336 336
316 315 314 313 313 313 312 311 311 313 312 312 312 311 311 311 312 308 309 310 311 311 312 312 309 310 310 309 312 310 312 315 317 318 316 319 323 325 326 326 325 328 331
315 314 313 311 311 312 311 308 310 309 308 308 309 311 310 310 311 309 309 313 311 315 314 310 310 308 308 311 306 310 312 313 314 315 318 319 322 323 323 324 323 322 323
314 313 312 311 310 310 309 309 309 309 307 307 307 308 309 309 310 311 313 314 310 315 314 313 309 307 311 310 306 306 304 308 311 312 312 313 317 321 320 321 319 318 317
313 312 311 311 310 308 308 306 305 305 304 302 302 303 306 309 310 310 314 314 314 314 313 312 306 305 306 308 307 305 304 302 305 310 308 306 308 318 319 318 317 318 316
313 312 311 310 310 307 306 303 302 300 299 300 300 301 303 307 309 313 313 314 312 312 311 307 307 303 302 301 304 306 306 304 297 296 303 303 304 311 312 311 311 314 314
313 311 311 310 307 306 304 303 301 299 300 301 302 302 303 305 310 313 312 311 309 308 306 305 305 303 301 299 299 299 299 298 297 295 292 294 298 300 310 313 310 310 308
312 311 310 308 306 305 305 303 301 301 300 300 300 301 302 303 306 307 308 305 303 304 303 302 303 302 301 300 299 298 296 295 295 293 291 291 292 296 308 313 312 309 309
Wind_Speed
1 4 10 12 12 13 13 13 12 13 13 13 13 13 13 12 12 12 11 9 8 10 9 9 8 8 7 7 7 7 7 6 5 4 2 4 5 4 5 5 8 8 11
7 4 11 12 13 13 13 13 12 13 13 13 12 12 12 12 11 10 10 9 9 8 7 6 6 6 6 6 6 5 6 6 6 6 6 7 1 5 4 1 8 7 9
9 6 9 12 14 14 14 13 12 12 13 12 12 11 10 10 10 8 6 5 5 5 4 4 4 5 5 5 6 6 7 7 8 7 7 4 4 6 7 7 9 10 9
9 7 7 13 13 14 14 12 11 11 11 10 10 9 8 7 6 5 5 6 6 5 4 4 4 4 5 5 6 7 7 8 9 11 4 3 5 8 11 10 10 12 12
7 7 10 13 12 13 13 12 10 10 9 9 9 7 6 6 5 5 5 5 5 5 6 6 6 6 6 7 7 7 8 9 9 8 5 5 5 9 15 16 12 13 14
6 6 11 13 13 12 12 11 10 8 7 7 7 7 5 4 3 3 3 3 3 4 5 6 7 7 8 8 8 8 8 9 9 5 5 6 6 11 11 17 15 12 12
6 5 8 12 12 12 12 11 11 9 8 7 7 5 4 2 2 2 2 4 5 6 7 7 8 9 9 10 10 10 10 10 5 4 5 5 6 8 12 16 14 13 12
9 6 6 10 10 9 9 9 9 8 6 6 6 5 4 4 5 4 5 6 7 8 9 10 9 9 10 10 11 11 11 10 6 5 4 3 4 13 10 8 7 7 10
8 5 5 5 8 9 7 6 7 7 5 6 9 14 18 13 7 5 7 8 7 9 9 9 11 10 10 11 11 11 13 12 5 3 5 2 4 7 8 6 5 7 9
6 5 3 4 4 5 4 6 6 7 7 11 13 16 15 15 14 17 8 8 8 9 10 10 11 11 12 12 11 11 12 13 4 3 3 3 3 5 5 3 2 7 10
9 6 3 2 4 4 5 5 5 10 12 12 11 16 11 7 8 10 14 16 14 14 15 16 14 13 14 9 12 12 13 3 4 3 3 9 8 7 7 6 5 4 3
7 6 3 4 5 5 5 4 5 7 5 6 7 8 6 7 8 11 13 18 17 18 15 14 14 14 12 6 6 11 4 4 3 5 4 15 13 11 9 8 7 6 5
6 6 6 7 9 9 6 4 4 3 4 4 8 7 6 6 6 6 5 6 6 12 6 7 7 5 7 5 5 6 6 6 3 3 7 15 15 15 12 9 8 7 5
9 8 7 7 7 6 4 4 4 4 3 3 5 6 5 4 5 6 5 6 5 4 6 5 5 6 6 6 6 6 6 5 4 2 5 13 13 14 12 11 10 8 6
10 8 7 7 6 5 6 3 4 4 4 4 5 6 5 5 5 5 5 4 5 5 4 6 5 5 5 7 5 5 6 5 4 4 3 12 16 16 12 9 9 8 7
8 8 6 7 6 6 5 5 4 4 5 4 4 4 6 4 4 5 5 5 6 4 5 4 4 4 4 5 6 6 6 5 4 4 4 5 14 15 12 9 9 8 5
7 8 7 6 7 6 4 3 4 4 5 4 4 5 6 5 6 6 4 6 6 5 6 5 5 5 6 6 6 6 4 5 5 5 3 3 3 9 11 7 8 3 7
10 9 7 7 6 7 7 5 3 4 4 3 3 4 6 6 6 5 4 5 5 5 4 4 4 4 5 4 5 5 4 4 6 4 5 5 5 4 6 4 3 6 7
8 8 8 7 7 6 6 5 6 6 4 4 4 4 7 6 6 4 4 4 5 4 4 4 3 3 3 5 5 5 5 4 5 6 7 7 7 6 4 12 15 15 16
8 8 7 6 7 6 4 4 4 7 7 6 5 5 6 5 6 5 4 5 5 4 4 4 3 3 2 4 4 4 6 6 6 6 6 6 6 6 6 7 5 7 15
7 8 7 6 6 5 4 3 4 5 3 4 4 5 6 5 6 6 4 6 6 5 4 5 4 4 4 7 3 3 3 9 8 8 7 5 5 4 5 4 4 3 5
6 8 6 6 6 5 3 2 3 3 3 2 3 5 5 6 6 5 6 5 6 4 6 7 6 3 3 6 3 1 4 4 5 5 7 7 6 3 5 4 4 6 4
7 8 6 5 6 5 6 4 4 4 3 3 3 3 5 5 5 5 5 5 5 4 5 5 6 8 5 4 7 3 3 3 3 4 7 8 8 3 4 4 3 5 5
6 7 7 6 6 6 7 6 7 4 3 2 2 2 4 5 6 5 5 5 5 4 6 4 5 4 4 7 4 6 6 3 3 5 4 5 6 6 5 4 5 4 4
8 7 6 7 7 6 6 7 5 4 2 1 3 5 5 5 5 5 6 5 5 4 5 6 6 7 4 4 4 4 4 4 4 3 3 5 4 4 4 3 3 3 3
7 8 7 8 6 6 6 6 7 7 4 4 4 3 4 4 4 5 5 5 6 6 5 4 5 7 5 5 3 4 3 2 3 3 2 3 3 5 3 4 4 3 2
Wind_Direction
78 112 101 94 83 90 91 89 90 88 84 79 77 74 72 68 64 61 59 57 60 55 54 53 47 42 40 43 42 32 29 34 44 47 64 140 142 153 170 156 147 133 130
137 124 107 102 98 90 82 91 87 83 83 82 76 74 70 68 66 62 56 53 56 59 55 57 54 45 34 24 21 16 8 1 355 351 337 326 273 165 186 186 145 139 133
131 123 107 102 99 96 94 92 89 88 85 85 85 82 80 79 76 73 70 66 64 57 55 45 35 28 13 2 356 352 346 342 336 331 322 319 299 244 198 191 162 154 148
128 121 118 112 109 107 105 105 108 108 108 110 106 99 95 94 88 77 57 39 27 19 8 357 350 344 339 333 333 332 332 332 327 323 333 315 289 275 212 201 193 172 166
126 129 125 120 118 113 110 110 104 99 99 96 91 85 78 65 52 39 28 17 1 347 333 329 326 323 315 311 311 314 317 316 317 325 320 301 279 264 234 194 197 191 175
116 121 127 128 126 125 124 122 114 108 99 88 79 69 59 50 37 26 355 341 314 301 299 303 300 298 298 297 296 299 300 298 310 318 321 299 287 261 233 187 183 202 197
137 146 133 135 133 132 129 124 115 105 95 84 64 48 33 7 0 327 307 290 285 296 301 301 300 302 299 296 294 291 286 295 305 309 322 330 311 305 234 176 181 199 208
141 141 138 136 136 131 124 121 116 111 104 95 66 10 330 319 315 303 284 287 301 315 316 312 308 306 300 296 291 283 282 284 299 304 327 313 39 65 92 147 172 210 223
131 116 129 137 134 121 118 120 118 116 103 75 39 41 40 33 351 301 304 299 305 311 312 309 305 300 295 290 287 285 280 274 262 255 282 244 77 88 109 130 177 212 212
95 97 111 91 99 125 130 134 134 121 74 56 46 44 41 28 23 23 349 292 314 311 303 313 306 306 292 285 283 278 278 278 253 227 219 204 132 114 126 144 216 236 250
78 71 81 121 154 150 146 148 122 88 71 57 47 42 33 24 15 16 13 21 7 26 38 25 20 17 11 332 321 309 293 233 226 197 216 224 231 215 192 196 204 243 220
89 72 57 58 74 165 97 64 73 85 63 51 47 43 30 28 19 14 7 11 14 22 12 10 6 8 7 354 342 355 341 306 230 201 205 231 239 221 203 199 194 190 177
113 76 41 46 48 62 69 63 61 69 56 40 43 42 33 26 13 10 359 1 4 6 2 358 354 358 350 346 345 342 353 356 277 239 221 227 229 224 194 190 187 184 177
104 94 72 57 64 60 64 59 66 80 83 66 54 46 47 28 13 5 4 353 357 345 347 347 351 348 351 354 356 344 341 357 336 339 276 246 230 233 214 188 203 192 176
110 103 86 80 76 81 86 80 68 66 80 77 57 45 48 38 17 1 356 346 344 344 350 351 352 353 347 347 339 334 328 333 332 307 305 271 239 222 216 202 224 210 198
107 92 86 76 74 68 63 62 64 68 88 75 63 53 54 49 26 14 353 350 342 342 338 351 345 339 334 339 333 323 320 322 316 301 275 272 261 226 218 200 215 213 234
102 99 85 73 49 49 46 45 56 54 79 78 69 55 54 49 29 17 5 4 346 333 349 358 347 353 358 338 323 318 319 322 324 329 323 311 332 248 216 197 187 247 309
93 79 59 62 59 59 45 33 37 57 99 99 73 56 49 50 46 37 17 358 335 348 351 350 355 347 341 340 321 319 317 327 337 28 20 16 28 32 89 87 282 3 329
81 79 62 55 52 61 54 49 48 51 70 39 40 36 36 35 30 35 23 345 341 345 346 352 329 10 342 336 327 330 334 19 37 36 30 29 38 49 46 65 85 68 64
76 65 59 51 43 40 35 45 41 58 58 47 48 43 34 21 22 6 15 357 347 348 351 356 350 333 303 311 343 330 19 55 54 36 32 34 54 58 62 70 72 85 79
87 81 56 54 26 42 24 12 35 54 45 39 33 35 29 22 16 3 8 5 355 7 6 7 335 353 331 351 20 351 1 42 46 41 30 40 44 77 84 90 90 63 74
129 116 93 75 49 41 47 21 77 112 61 69 23 20 18 19 15 13 14 4 1 6 13 8 0 347 359 14 14 333 11 355 19 28 33 17 6 1 90 77 101 92 75
148 135 123 100 80 63 59 55 49 61 39 21 8 3 358 9 11 8 15 12 3 13 17 14 18 26 10 354 37 59 19 11 324 14 20 19 2 16 67 75 93 100 85
163 131 123 115 100 79 73 71 79 86 71 322 360 350 350 3 10 0 15 25 17 10 23 9 23 25 33 25 5 15 47 55 45 350 343 4 8 17 26 15 54 67 77
154 141 133 107 103 95 95 95 91 87 80 11 16 15 360 347 11 11 14 21 26 33 35 43 32 32 37 49 28 350 1 11 46 79 341 333 343 10 25 40 50 78 55
158 139 141 117 120 119 103 98 104 96 85 46 11 15 352 343 352 11 18 33 47 48 34 43 43 48 37 44 59 51 51 48 341 27 9 332 325 329 333 20 12 24 359